This is the latest recevied weather packets stored in our database for station/object EW4881. If no packets are shown the sender has not sent any weather packets the latest 10 day(s).
| Time | Temp. | Humidity | Pressure | Rain* | Wind** | Luminosity | Snow |
|---|---|---|---|---|---|---|---|
| 1777838691 | 16.11° C | 33% | 979.4 hPa | 0 mm | - | 294 W/m² | - |
| 1777838633 | 16.11° C | 34% | 979.5 hPa | 0 mm | - | 294 W/m² | - |
| 1777838571 | 16.67° C | 33% | 979.5 hPa | 0 mm | - | 294 W/m² | - |
| 1777838509 | 16.67° C | 33% | 979.3 hPa | 0 mm | - | 281 W/m² | - |
| 1777838450 | 16.67° C | 33% | 979.4 hPa | 0 mm | - | 248 W/m² | - |
| 1777838389 | 16.67° C | 33% | 979.5 hPa | 0 mm | - | 248 W/m² | - |
| 1777838331 | 16.67° C | 33% | 979.4 hPa | 0 mm | - | 236 W/m² | - |
| 1777838270 | 16.67° C | 34% | 979.4 hPa | 0 mm | - | 287 W/m² | - |
| 1777838211 | 16.67° C | 34% | 979.5 hPa | 0 mm | - | 891 W/m² | - |
| 1777838146 | 16.11° C | 34% | 979.5 hPa | 0 mm | - | 933 W/m² | - |
| 1777838085 | 16.11° C | 34% | 979.5 hPa | 0 mm | - | 933 W/m² | - |
| 1777838024 | 16.11° C | 35% | 979.5 hPa | 0 mm | - | 933 W/m² | - |
| 1777837965 | 16.11° C | 34% | 979.6 hPa | 0 mm | - | 239 W/m² | - |
| 1777837907 | 16.11° C | 34% | 979.6 hPa | 0 mm | - | 239 W/m² | - |
| 1777837837 | 16.11° C | 34% | 979.6 hPa | 0 mm | - | 239 W/m² | - |
| 1777837776 | 16.11° C | 34% | 979.7 hPa | 0 mm | - | 239 W/m² | - |
| 1777837717 | 16.11° C | 34% | 979.7 hPa | 0 mm | - | 260 W/m² | - |
| 1777837656 | 16.67° C | 33% | 979.5 hPa | 0 mm | - | 970 W/m² | - |
| 1777837601 | 16.67° C | 33% | 979.7 hPa | 0 mm | - | 970 W/m² | - |
| 1777837531 | 16.67° C | 33% | 979.7 hPa | 0 mm | - | 272 W/m² | - |
| 1777837471 | 16.67° C | 34% | 979.8 hPa | 0 mm | - | 272 W/m² | - |
| 1777837411 | 16.67° C | 34% | 979.8 hPa | 0 mm | - | 984 W/m² | - |
| 1777837350 | 16.67° C | 34% | 979.8 hPa | 0 mm | - | 984 W/m² | - |
| 1777837294 | 16.67° C | 34% | 979.8 hPa | 0 mm | - | 984 W/m² | - |
| 1777837224 | 16.67° C | 34% | 979.8 hPa | 0 mm | - | 984 W/m² | - |
* Rain latest hour (hover to see other rain measurements)
** Current wind speed in m/s (hover to see current wind gust speed)